Regional Weather Roundup
Issued by NWS

Home | Current Version | Previous Version | Graphics & Text | Print | Product List | Glossary On
Versions: 1 2 3 4 5 6 7 8 9 10 11 12 13 14 15 16 17 18 19 20 21 22 23 24 25 26 27 28 29 30 31 32 33 34 35 36 37 38 39 40 41 42 43 44 45 46 47 48 49 50
000
ASUS45 KPSR 231900
RWRAZ

PRELIMINARY ARIZONA REGIONAL HOURLY WEATHER ROUNDUP
NATIONAL WEATHER SERVICE PHOENIX AZ
1200 PM MST THU OCT 23 2014

NOTE: FAIR INDICATES FEW OR NO CLOUDS BELOW 12,000 FEET WITH NO
SIGNIFICANT WEATHER AND/OR OBSTRUCTIONS TO VISIBILITY.

AZZ001>003-036-232000-
NORTHWEST ARIZONA

CITY           SKY/WX    TMP DP  RH WIND       PRES   REMARKS
KINGMAN        SUNNY     80  36  20 VRB6      30.16F
$$

AZZ004>008-015-016-018-232000-
NORTH CENTRAL ARIZONA

CITY           SKY/WX    TMP DP  RH WIND       PRES   REMARKS
GRAND CANYON   SUNNY     69  31  24 VRB6      30.33F
PRESCOTT       SUNNY     76  36  23 CALM      30.25F
FLAGSTAFF      SUNNY     67  32  27 S8        30.36S
PAYSON         SUNNY     73  37  27 S8        30.27F
PAGE           MOSUNNY   69  30  23 N5        30.21F
$$

AZZ009>014-017-232000-
NORTHEAST ARIZONA

CITY           SKY/WX    TMP DP  RH WIND       PRES   REMARKS
WINSLOW        NOT AVBL
SAINT JOHNS    SUNNY     72  41  32 W5        30.28F
WINDOW ROCK    SUNNY     71  30  21 MISG      30.33
$$

AZZ023-232000-
GREATER PHOENIX AREA

CITY           SKY/WX    TMP DP  RH WIND       PRES   REMARKS
PHOENIX        MOSUNNY   88  49  25 E6        30.01F
GLENDALE       MOSUNNY   84  50  30 CALM      30.04F
LUKE AFB       SUNNY     85  50  30 CALM      30.01F
DEER VALLEY    SUNNY     85  48  27 VRB6      30.03F
SCOTTSDALE     SUNNY     86  49  27 VRB3      30.04F
MESA-GATEWAY   MOSUNNY   82  54  36 W3        30.05F
CHANDLER       MOSUNNY   84  52  32 CALM      30.03F
$$

AZZ027-028-232000-
SOUTHWEST MARICOPA COUNTY AND PINAL COUNTY

CITY           SKY/WX    TMP DP  RH WIND       PRES   REMARKS
CASA GRANDE    SUNNY     82  50  32 CALM      30.04F
GILA BEND      CLEAR     90  48  24 N6        30.01F
$$

AZZ503-504-507>509-232000-
SOUTHEAST ARIZONA

CITY           SKY/WX    TMP DP  RH WIND       PRES   REMARKS
TUCSON         SUNNY     85  45  24 S3        30.09F
RYAN FIELD       N/A     88  52  29 E8        30.09F
NOGALES        SUNNY     84  46  26 W3        30.15F
SIERRA VISTA   MOSUNNY   79  45  29 S7        30.21F
SAFFORD        SUNNY     79  50  36 E3        30.14F
$$

AZZ020-021-025-026-031-232000-
SOUTHWEST ARIZONA

CITY           SKY/WX    TMP DP  RH WIND       PRES   REMARKS
YUMA           MOSUNNY   93  46  19 NE3       29.95F
$$

CAZ031-033-041-043-047-048-061-232000-
SOUTHERN CALIFORNIA

CITY           SKY/WX    TMP DP  RH WIND       PRES   REMARKS
DOWNTOWN L.A.  SUNNY     83  54  36 CALM      29.98F HAZE
L.A. AIRPORT   MOSUNNY   75  61  61 W8        29.99F
SAN DIEGO      MOSUNNY   73  59  61 NW8       30.00F
BURBANK        SUNNY     83  46  27 S5        29.99F
ONTARIO        MOSUNNY   85  38  18 VRB3      30.00F
RIVERSIDE      SUNNY     85  36  17 VRB3      29.99F
PALM SPRINGS   SUNNY     91  40  16 E5        29.99F
EL CENTRO NAS  MOSUNNY   92  36  14 CALM      29.95F
IMPERIAL       SUNNY     89  46  22 NW5       29.95F
BLYTHE         SUNNY     87  45  23 VRB3      29.98F
$$

NVZ020-UTZ003-232000-
SOUTHERN NEVADA-UTAH

CITY           SKY/WX    TMP DP  RH WIND       PRES   REMARKS
LAS VEGAS      NOT AVBL
SALT LAKE CITY PTSUNNY   67  35  30 W5        30.11F
$$

NMZ009-TXZ055-232000-
NEW MEXICO-WEST TEXAS

CITY           SKY/WX    TMP DP  RH WIND       PRES   REMARKS
ALBUQUERQUE    MOSUNNY   67  41  38 CALM      30.27F
EL PASO        MOSUNNY   75  52  44 CALM      30.18F
$$


........................KEY........................
SKY/WX - SKY CONDITION/WEATHER
TMP    - TEMPERATURE IN FAHRENHEIT
DP     - DEW POINT IN FAHRENHEIT
RH     - RELATIVE HUMIDITY IN PERCENT
WIND   - DIRECTION AND SPEED IN MILES PER HOUR (MPH)
VRB    - VARIABLE WIND DIRECTION
PRES   - MEAN SEA LEVEL PRESSURE IN INCHES OF MERCURY
         F - FALLING PRESSURE   R - RISING PRESSURE
         S - STEADY PRESSURE
VSB    - VISIBILITY IN MILES
HX     - HEAT INDEX IN FAHRENHEIT
WCI    - WIND CHILL INDEX IN FAHRENHEIT
TC     - TEMPERATURE IN CELSIUS WHICH IS ALSO KNOWN AS
         TEMPERATURE IN CENTIGRADE
AFB    - AIR FORCE BASE
         LUKE AFB IS LUKE AIR FORCE BASE
         DAVIS-MONTHAN IS DAVIS-MONTHAN AIR FORCE BASE
NAS    - NAVAL AIR STATION
         EL CENTRO NAS IS EL CENTRO NAVAL AIR STATION
N/A    - NOT AVAILABLE



USA.gov is the U.S. government's official web portal to all federal, state and local government web resources and services.